Flag for Germany Weather past 2 weeks in Kaiserslautern, Rhineland-Palatinate, Germany

Now
50 °F

Passing clouds.


Feels Like: 43 °F
Forecast: 38 / 45 °F
Wind: 26 mph from West

Location: Ramstein

Current Time: Mar 31, 2015 at 3:17:35 PM

Latest Report: Mar 31, 2015 at 2:04 PM


Visibility: N/A

Pressure: 29.66 "Hg

Humidity: 76%

Dew point: 43 °F

Location of KaiserslauternLocation

Historic Weather in Kaiserslautern — Graph

°F

Kaiserslautern temperature yesterday

Maximum temperature yesterday: 52 °F (at 4:58 PM)
Minimum temperature yesterday: 43 °F (at 11:58 AM)
Average temperature yesterday: 47 °F

Past Weeks' High & Low Weather Summary

 TemperatureHumidityPressure
High65 °F (Mar 18, 3:58 PM)100% (Mar 17, 12:58 AM)30.32 "Hg (Mar 17, 12:58 AM)
Low25 °F (Mar 21, 6:58 AM)30% (Mar 18, 5:58 PM)29.49 "Hg (Mar 29, 9:02 PM)
Average44 °F79%30.00 "Hg
* Reported Mar 16 1:58 PM — Mar 31 2:04 PM, Kaiserslautern, Weather by CustomWeather, © 2015

Note: Actual official high and low records may vary slightly from our data, if they occured in-between our weather recording intervals... More about our weather records

Advertising

Kaiserslautern weather history for previous 24 hours

 ConditionsComfort  
Time TempWeatherWind HumidityBarometerVisibility
2:04 PM
Tue, Mar 31
50 °FPassing clouds.26 mph76%29.66 "HgN/A
1:58 PM50 °FLight rain. Scattered clouds.28 mph71%29.69 "HgN/A
12:58 PM49 °FLight rain. Fog.33 mph86%29.67 "Hg4 mi
11:58 AM52 °FLight rain. Partly sunny.29 mph77%29.62 "HgN/A
10:58 AM51 °FLight rain. Overcast.24 mph88%29.59 "HgN/A
10:01 AM52 °FLight rain. Mostly cloudy.25 mph88%29.55 "HgN/A
9:01 AM50 °FLight rain. Fog.23 mph100%29.53 "Hg4 mi
7:58 AM53 °FLight rain. Overcast.26 mph81%29.50 "HgN/A
6:58 AM54 °FMostly cloudy.25 mph82%29.51 "HgN/A
5:58 AM54 °FDrizzle. Mostly cloudy.26 mph88%29.54 "HgN/A
4:58 AM51 °FLight rain. Mostly cloudy.18 mph99%29.58 "HgN/A
3:58 AM47 °FLight rain. Overcast.18 mph99%29.62 "HgN/A
2:58 AM46 °FLight rain. Mostly cloudy.17 mph93%29.69 "HgN/A
1:58 AM47 °FLight rain. Partly cloudy.15 mph76%29.74 "HgN/A
12:58 AM45 °FPassing clouds.9 mph73%29.81 "HgN/A
11:58 PM
Mon, Mar 30
46 °FClear.9 mph57%29.85 "HgN/A
10:58 PM46 °FPassing clouds.7 mph56%29.90 "HgN/A
9:58 PM46 °FPassing clouds.6 mph53%29.92 "HgN/A
8:58 PM45 °FPassing clouds.7 mph53%29.93 "HgN/A
7:58 PM46 °FSunny.12 mph48%29.93 "HgN/A
6:58 PM50 °FSunny.17 mph39%29.89 "HgN/A
5:58 PM52 °FPassing clouds.17 mph39%29.85 "HgN/A
4:58 PM52 °FBroken clouds.24 mph41%29.83 "HgN/A
3:58 PM51 °FScattered clouds.26 mph41%29.82 "HgN/A
Weather by CustomWeather, © 2015

See weather overviewHow to use our weather pages